"Pseudo-MPEC" for A11EJqb

Created 2026 Jul 16 14:35:02 UT using Find_Orb

Click here for an explanation of pseudo-MPECs

 
 Astrometry: 
     A11EJqb*0C2026 07 15.12918503 18 34.968-20 37 55.24   ~7FFK 18.62oVNEOCPM22
     A11EJqb 0C2026 07 15.13234203 18 35.016-20 37 53.98   ~7FFK 18.65oVNEOCPM22
     A11EJqb 0C2026 07 15.13821203 18 35.098-20 37 53.51   ~7FFK 18.39oVNEOCPM22
     A11EJqb 0C2026 07 15.14859603 18 35.328-20 37 48.90   ~7FFK 18.08oVNEOCPM22
     A11EJqb KC2026 07 16.37688703 19 01.018-20 32 09.55   ~7GDK 18.2 GXNEOCPX20
     A11EJqb KC2026 07 16.38383203 19 01.145-20 32 07.35   ~7GDK 18.1 GXNEOCPX20
     A11EJqb KC2026 07 16.39077803 19 01.289-20 32 05.52   ~7GDK 18.2 GXNEOCPX20
     A11EJqb KC2026 07 16.47042803 19 02.942-20 31 47.25   ~7GDZ 17.6 GXNEOCPU86
     A11EJqb KC2026 07 16.47798403 19 03.080-20 31 44.85   ~7GDZ 19.4 GXNEOCPU86
     A11EJqb KC2026 07 16.48606803 19 03.203-20 31 41.99   ~7GDZ 17.7 GXNEOCPU86

Station data:
(M22) ATLAS South Africa, Sutherland  (S32.380156 E20.810590)  South Africa.
   Observers L. Denneau, R. Siverd, J. Tonry, H. Weiland. Measurers L.
   Denneau, N. Erasmus, A. Fitzsimmons, J. Robinson, R. Siverd, J. Tonry, H.
   Weiland. 0.5-m f/2.0 Schmidt + CCD.
(U86) BOOTES-5, Bajo California  (N31.044834 W115.464440)  Mexico.
(X20) BOOTES-7, San Pedro Atacama  (S22.953074 W68.179480)  Chile.

Orbital elements:  A11EJqb
   Perihelion 2025 Dec 25.644402 +/- 246 TT = 15:27:56.2 (JD 2461035.144402)
Epoch 2026 Jul 16.0 TT = JDT 2461237.5                           AutoNEOCP
M  50.905564400 +/- 90              (J2000 ecliptic)
n   0.251564892 +/- 0.0837          Peri.  245.608332 +/- 90
a   2.485245870 +/- 0.551           Node    20.838259 +/- 4.3
e   0.22753909 +/- 0.065            Incl.   72.747898 +/- 3.0
P   3.91791                H 13.92  G  0.15   U 11.1  SR
q 1.919755283 +/- 0.319    Q 3.050736458 +/- 0.623
From 10 observations 2026 July 15-16 (32.6 hr); mean residual 0".39
Residuals in arcseconds: 
260715 M22  .41+  .13-    260716 X20  .12-  .34-    260716 U86  .21+  .01-    
260715 M22  .16+  .26+    260716 X20  .19-  .01+    260716 U86  .23-  .71+    
260715 M22  .39-  .91-    260716 X20  .01-  .01-    
260715 M22  .17-  .82+    260716 U86  .31+  .41-    

Ephemerides (geocentric):
Date (UTC) HH   RA             Dec           delta  r     elong  mag " sig PA
---- --------  ------------   ------------  ------ ------ -----  --- --------
2026 07 16 15  03 19 05.777   -20 31 02.57  2.2266 2.2253  76.7 18.6 .393  79
2026 07 16 16  03 19 06.600   -20 30 51.33  2.2262 2.2254  76.8 18.6 .424  81
2026 07 16 17  03 19 07.420   -20 30 40.11  2.2258 2.2255  76.8 18.6 .457  83
2026 07 16 18  03 19 08.238   -20 30 28.91  2.2254 2.2257  76.8 18.6 .493  84
2026 07 16 19  03 19 09.053   -20 30 17.71  2.2250 2.2258  76.8 18.6 .531  86
2026 07 16 20  03 19 09.867   -20 30 06.54  2.2246 2.2259  76.9 18.6 .571  88
2026 07 16 21  03 19 10.678   -20 29 55.38  2.2242 2.2260  76.9 18.6 .613  89
2026 07 16 22  03 19 11.486   -20 29 44.24  2.2238 2.2261  76.9 18.6 .658  91
2026 07 16 23  03 19 12.293   -20 29 33.11  2.2234 2.2262  76.9 18.6 .704  92
2026 07 17 00  03 19 13.097   -20 29 21.99  2.2230 2.2263  77.0 18.6 .753  93
2026 07 17 01  03 19 13.899   -20 29 10.90  2.2226 2.2264  77.0 18.6 .804  95
2026 07 17 02  03 19 14.698   -20 28 59.81  2.2222 2.2265  77.0 18.6 .857  96
2026 07 17 03  03 19 15.495   -20 28 48.75  2.2218 2.2266  77.1 18.6 .912  97
2026 07 17 04  03 19 16.290   -20 28 37.70  2.2214 2.2267  77.1 18.6 .969  98
2026 07 17 05  03 19 17.083   -20 28 26.66  2.2210 2.2268  77.1 18.6 1.03  99
2026 07 17 06  03 19 17.873   -20 28 15.64  2.2206 2.2269  77.1 18.6 1.09  99
2026 07 17 07  03 19 18.661   -20 28 04.64  2.2202 2.2270  77.2 18.6 1.15 100
2026 07 17 08  03 19 19.447   -20 27 53.65  2.2198 2.2271  77.2 18.6 1.22 101
2026 07 17 09  03 19 20.231   -20 27 42.67  2.2194 2.2272  77.2 18.6 1.29 101
2026 07 17 10  03 19 21.012   -20 27 31.71  2.2190 2.2273  77.2 18.6 1.36 102
2026 07 17 11  03 19 21.790   -20 27 20.77  2.2186 2.2274  77.3 18.6 1.43 103
2026 07 17 12  03 19 22.567   -20 27 09.84  2.2182 2.2275  77.3 18.6 1.50 103
2026 07 17 13  03 19 23.341   -20 26 58.93  2.2178 2.2276  77.3 18.6 1.58 104
2026 07 17 14  03 19 24.113   -20 26 48.03  2.2173 2.2277  77.4 18.6 1.65 104
2026 07 17 15  03 19 24.882   -20 26 37.15  2.2169 2.2278  77.4 18.6 1.73 104
2026 07 17 16  03 19 25.650   -20 26 26.28  2.2165 2.2279  77.4 18.6 1.81 105
2026 07 17 17  03 19 26.414   -20 26 15.43  2.2161 2.2280  77.4 18.6 1.90 105
2026 07 17 18  03 19 27.177   -20 26 04.60  2.2157 2.2281  77.5 18.6 1.98 105
2026 07 17 19  03 19 27.937   -20 25 53.78  2.2153 2.2282  77.5 18.6 2.07 106
2026 07 17 20  03 19 28.695   -20 25 42.97  2.2149 2.2283  77.5 18.6 2.16 106
2026 07 17 21  03 19 29.451   -20 25 32.18  2.2145 2.2284  77.5 18.6 2.25 106
2026 07 17 22  03 19 30.204   -20 25 21.41  2.2141 2.2285  77.6 18.6 2.34 107
2026 07 17 23  03 19 30.955   -20 25 10.65  2.2137 2.2286  77.6 18.6 2.44 107
2026 07 18 00  03 19 31.703   -20 24 59.91  2.2133 2.2287  77.6 18.6 2.54 107
2026 07 18 01  03 19 32.450   -20 24 49.18  2.2129 2.2288  77.7 18.6 2.64 107
2026 07 18 02  03 19 33.194   -20 24 38.46  2.2125 2.2289  77.7 18.6 2.74 108
2026 07 18 03  03 19 33.935   -20 24 27.77  2.2121 2.2290  77.7 18.6 2.84 108
2026 07 18 04  03 19 34.674   -20 24 17.08  2.2116 2.2291  77.7 18.6 2.95 108
2026 07 18 05  03 19 35.411   -20 24 06.42  2.2112 2.2292  77.8 18.6 3.05 108
2026 07 18 06  03 19 36.146   -20 23 55.77  2.2108 2.2293  77.8 18.6 3.16 108
2026 07 18 07  03 19 36.878   -20 23 45.13  2.2104 2.2295  77.8 18.6 3.27 109
2026 07 18 08  03 19 37.608   -20 23 34.51  2.2100 2.2296  77.8 18.6 3.39 109
2026 07 18 09  03 19 38.335   -20 23 23.90  2.2096 2.2297  77.9 18.6 3.50 109
2026 07 18 10  03 19 39.060   -20 23 13.31  2.2092 2.2298  77.9 18.6 3.62 109
2026 07 18 11  03 19 39.783   -20 23 02.73  2.2088 2.2299  77.9 18.6 3.74 109
2026 07 18 12  03 19 40.504   -20 22 52.17  2.2084 2.2300  78.0 18.6 3.86 109
2026 07 18 13  03 19 41.222   -20 22 41.63  2.2080 2.2301  78.0 18.6 3.98 109
2026 07 18 14  03 19 41.937   -20 22 31.10  2.2076 2.2302  78.0 18.6 4.11 110